{"data":{"norad_id":57508,"epoch":"2026-05-25T03:03:50.395104Z","epoch_age_seconds":70845,"freshness":"FRESH","line1":"1 57508U 23113P   26145.12766661  .00002923  00000+0  11568-3 0  9997","line2":"2 57508  43.0028 304.5304 0001416 266.5325  93.5364 15.27584659155153","mean_motion":15.27584659,"eccentricity":0.0001416,"inclination_deg":43.0028,"raan_deg":304.5304,"arg_perigee_deg":266.5325,"mean_anomaly_deg":93.5364,"bstar":0.00011568,"rev_number":15515,"period_min":94.266461208288,"perigee_km":482.06360337726,"apogee_km":484.00668732883,"semimajor_km":6861.172145353,"source":"CELESTRAK","updated_at":"2026-05-25T13:38:18.329582Z"}}